Location: Ward Pound Ridge Reservation
(41.2500°N, 73.6000°W)
Time: 15:16:37
(UTC-04:00)

Tiangong 1 - Pass Details

Date: 08 October 2017
Orbit: 292 x 320 km, 42.8° (Epoch: 22 October)

Event Time Altitude Azimuth Distance (km) Brightness Sun altitude
Rises 20:32:56 0° 277° (W) 2,029 6.1 -24.9°
Reaches altitude 10° 20:34:56 10° 281° (WNW) 1,194 4.6 -25.2°
Enters shadow 20:35:29 15° 284° (WNW) 970 4.0 -25.3°
